EXPRESS-AM6

Last updated on Tue Oct 15 2024 00:02:40 GMT+0000 (Coordinated Universal Time)

1 40277U 14064A 24288.48964588 .00000095 00000+0 00000+0 0 9993 2 40277 0.0032 185.7847 0001030 315.5009 111.5308 1.00273028 35453
UTC large
Height (km)
Speed (km/s)
/
Latitude / Longitude
Inclination (degrees)
Orbital Period (minutes)
Azimuth
Elevation
Range (km)
Doppler Factor

Next 0 passes for location: London (51.5072 / 0.1276)

Sorry there are no passes over London.